DECAYED

OBJECT J, 61235 (Decayed)

Orbit data source: Space-Track

You're viewing an Uncataloged Satellite

Recently launched and/or uncataloged satellites may have evolving metadata. Metadata may include but not limited to: Owner, Maufacturer, Bus, Motor, and Mission.

OBJECT J, 61235 was a satellite owned by Changzheng H. (CN) in SSO that was launched on Tue, 24 Sep 2024 UTC launched from the Yellow Sea Launch Area, China (YSLA). Unknown objects in Earth's orbit typically refer to objects detected orbiting the Earth but have not yet been identified or cataloged. These objects could be anything from previously untracked satellites, spent rocket stages, debris from satellite collisions, or even natural meteoroids temporarily captured by Earth's gravity. This object's orbit decayed before it could be identified.

Loading next visibility...
Identifier
61235, 2024-173J
Orbit
Decayed
Last TLE update
7 months ago
Origin
Manufacturer
Changzheng H.
Mission
Decayed spacecraft
Bus & Motor
Unknown
Mass
Unknown
Launch date (UTC)
2024-09-24 (7 months ago)
Launch vehicle
Unknown
Launch site
Yellow Sea Launch Area, China (YSLA)
Object type
Unknown
Shape & HBR
Unknown
Radar Cross Section
Medium (>0.1 m² and <1 m²)

Expand to show TLE details & history

TLE from 7 months ago
0 OBJECT J
1 61235U 24173J   24276.94185071  .00044548  00000-0  18438-2 0  9991
2 61235  97.3766 350.1967 0018166 145.3137 214.9289 15.23647602  1275
Epoch: 2024-10-02T22:36Z
Definitive object data (Epoch: 2024-10-02T22:36:15.901Z)
Latitude
Longitude
-1.00354°
Altitude
508.192 km
Speed
7.604 km/s
True Right ascension
23h 20m 47s
True Declination
0° 00' 00"
Sunlit
Object was in full shadow at TLE epoch
Visualization observer readout
Visualization observer readout
Orbital elements
Apogee altitude
504.289 km
Perigee altitude
479.329 km
Semi-major axis
6,869.946 km
Eccentricity
0.0018166
Inclination
97.3766°
RAAN
350.1967°
Arg. of periapsis
145.3137°
True anomaly
214.80993°
Mean anomaly
214.9289°
Eccentric anomaly
214.86939°
Mean motion
3.81165 °/min
BSTAR
0.0018438
Orbital period
94.45 mins
Loading maneuver chart data...
Loading SW <> Apogee altitude chart data...
Loading historical data...
Loading historical data...
Loading historical data...
Loading historical data...
Loading historical data...
Loading historical data...
Loading historical data...

OBJECT J Visibility forecast

Observer location: undefined°, undefined°

Span
Click to sort rows by Start time (UTC) header in descending order
Start Az.
Max El. time (UTC)
Max El. Az.
Max El.
End time (UTC)
End Az.
4 mins2025-05-10 05:08:53.591Z150.836° SSE2025-05-10 05:09:53.591Z125.416° SE39.193°2025-05-10 05:12:53.591Z355.574° N
|